Theta_e
304 304 304 305 306 306 306 306 306 307 307 307 307 307 307 306 305 305 305 304 304 305 305 305 305 304 305 304 305 305 306 307 312 313 310 309 307 306 305 305 305 305 305
304 305 306 306 306 307 307 307 307 308 307 307 307 308 307 306 305 305 305 304 304 304 304 304 304 303 303 304 304 304 305 307 308 310 308 307 306 305 305 304 303 303 303
305 305 306 306 307 307 307 307 307 307 307 307 307 308 307 306 305 305 305 304 305 305 304 304 302 302 302 303 304 303 305 307 309 309 308 307 306 305 304 303 302 301 301
305 306 306 306 306 306 307 307 307 307 307 308 307 308 307 305 304 304 305 305 304 305 304 301 300 301 302 302 304 303 304 306 309 309 307 306 306 306 304 302 300 300 299
306 305 306 306 306 306 307 307 307 307 307 307 307 306 303 303 304 305 305 306 305 304 302 301 300 301 301 301 304 304 304 305 308 307 307 306 306 306 305 302 300 300 299
305 306 306 306 306 306 306 306 306 307 307 307 306 305 303 303 303 305 307 306 306 302 301 301 300 302 301 302 304 304 305 305 307 308 307 307 307 306 304 302 302 303 302
305 305 305 306 305 305 304 304 306 307 307 307 306 305 303 303 303 303 306 306 305 301 301 300 300 302 302 302 303 305 305 305 306 308 308 308 307 306 305 303 303 301 299
305 305 305 305 305 304 303 303 305 305 306 306 305 303 303 303 303 303 304 305 305 302 301 300 301 302 302 302 305 305 306 306 307 308 308 307 307 307 306 305 302 301 300
304 304 305 305 305 302 302 303 303 302 302 302 303 303 302 302 302 302 303 304 304 302 300 300 302 302 303 304 305 305 305 304 307 308 308 308 307 307 307 306 303 304 303
304 303 304 305 303 301 301 301 301 300 300 300 300 300 299 299 300 302 302 304 302 300 300 302 302 303 304 305 306 305 304 303 305 306 306 307 307 307 306 305 305 305 302
303 303 304 303 301 300 300 300 299 300 300 300 300 300 300 300 299 301 301 301 300 299 300 301 302 303 304 305 305 304 303 304 305 305 305 305 306 306 306 306 306 305 304
303 303 303 302 301 300 300 299 299 299 299 299 299 299 299 300 300 301 301 300 300 300 301 301 302 303 304 304 304 305 305 305 304 303 301 301 301 301 301 302 303 303 303
304 304 302 301 301 301 300 299 299 298 298 298 298 298 299 299 300 301 301 300 300 301 302 303 303 304 304 304 304 304 304 303 302 300 299 299 299 298 299 298 298 299 300
303 303 302 302 301 300 300 299 299 298 298 297 297 298 298 298 299 299 299 300 301 302 303 303 303 303 303 303 303 302 302 301 301 299 299 299 299 298 298 301 301 300 299
301 301 300 300 300 300 299 299 299 299 298 298 297 297 298 298 298 299 300 301 302 303 303 303 303 302 302 302 302 301 301 301 300 300 300 300 299 299 301 301 301 300 300
301 300 300 300 299 299 299 299 299 299 300 299 299 299 299 299 299 300 301 302 303 303 303 303 303 302 302 301 301 300 300 300 300 300 301 301 301 301 301 302 301 301 301
300 299 300 299 300 300 300 300 300 301 301 301 300 300 300 300 301 302 302 302 303 304 303 303 302 302 301 301 301 301 301 301 300 301 301 300 299 299 300 300 300 300 299
301 301 301 301 301 301 301 301 301 301 301 301 302 301 301 301 301 302 303 304 304 304 303 303 302 302 301 301 301 301 301 301 301 299 299 299 300 301 301 301 300 300 300
303 303 302 302 302 302 302 302 302 301 301 302 302 302 301 301 302 303 304 304 303 303 303 303 303 303 302 302 302 302 302 301 299 299 300 301 301 302 302 302 302 302 302
303 303 302 302 302 302 302 302 302 301 301 301 302 302 303 304 304 304 305 305 305 305 305 304 304 304 304 304 303 302 301 300 300 301 301 301 303 304 304 304 304 304 304
304 303 303 303 303 302 302 302 302 302 302 302 302 303 304 305 304 305 305 305 305 305 305 306 305 305 305 305 303 303 303 302 302 302 304 305 305 304 304 305 305 304 305
305 304 303 303 303 303 303 303 303 303 303 303 304 304 304 304 304 304 305 305 306 306 306 306 306 305 305 304 303 303 303 305 305 305 306 306 305 304 304 305 305 305 305
305 305 305 305 304 303 303 303 303 303 303 303 303 303 303 303 303 304 304 305 306 307 307 307 306 306 306 306 306 306 305 305 306 306 306 305 304 303 303 305 305 304 303
306 305 304 303 304 304 304 303 303 303 303 303 302 301 301 301 301 301 302 303 304 304 305 304 304 305 306 306 306 307 307 307 307 306 305 303 302 301 301 302 302 301 301
304 304 304 305 304 304 304 304 304 303 303 301 301 300 300 300 301 301 302 303 304 304 303 303 303 304 304 304 304 305 305 305 305 304 301 300 300 299 298 299 299 299 299
304 304 305 305 304 304 304 303 303 303 302 300 299 299 299 300 300 301 302 302 302 301 300 299 299 299 300 300 300 300 301 300 300 299 299 298 297 296 296 296 296 295 295
Wind_Speed
10 10 9 11 12 13 14 14 14 15 14 14 13 11 11 10 11 12 16 17 16 13 15 14 17 18 17 18 16 17 15 13 4 2 10 19 19 22 22 23 23 25 24
10 11 12 12 13 13 13 12 12 13 12 11 9 9 8 10 11 10 12 13 15 15 16 17 17 20 21 17 18 18 18 16 7 9 8 15 19 18 19 21 22 22 22
13 14 12 13 15 16 16 14 13 13 11 10 9 8 8 10 11 10 9 9 11 12 14 17 19 20 21 19 16 15 17 16 12 12 7 15 16 18 17 17 17 18 19
14 14 14 15 16 17 15 13 13 11 11 10 9 7 7 11 12 12 11 10 10 11 13 16 19 17 18 17 13 14 17 15 9 14 12 12 13 10 13 15 17 17 17
14 13 14 15 15 16 13 12 12 11 9 8 7 7 11 13 14 15 14 11 9 10 12 18 20 16 15 13 10 13 13 12 9 14 10 12 10 5 7 9 14 16 18
12 12 14 14 13 13 13 12 13 12 9 7 8 10 13 15 16 17 16 10 6 8 14 19 20 20 19 13 7 9 7 7 7 9 10 11 9 10 11 10 7 3 3
13 13 14 11 12 11 13 14 13 13 9 8 8 11 11 14 16 18 17 7 5 8 15 20 21 20 18 15 11 8 4 1 1 6 14 12 14 13 12 7 8 10 6
16 16 15 10 10 11 13 15 12 12 10 9 10 11 11 13 15 16 15 9 6 8 16 18 19 19 18 15 12 7 6 5 2 5 14 14 13 10 9 6 12 15 12
17 19 17 10 9 12 14 13 11 11 12 12 11 11 13 15 14 15 15 10 6 12 16 16 17 19 16 10 6 12 16 19 12 12 13 13 13 9 4 7 10 6 6
21 18 13 9 8 11 11 12 12 12 12 11 12 13 14 17 14 11 11 8 9 12 13 13 17 17 12 9 13 15 19 16 21 22 20 17 13 9 6 6 5 4 6
17 15 8 5 9 9 11 13 14 15 14 13 14 12 13 15 14 11 11 10 11 11 12 16 16 14 13 13 14 18 20 21 22 23 21 18 15 11 10 5 2 4 6
15 11 6 6 7 10 11 13 16 16 17 17 16 13 14 15 12 13 11 11 11 11 12 13 12 19 17 18 20 19 20 21 21 23 23 20 18 18 17 17 17 17 16
12 9 8 6 8 13 14 14 17 19 18 15 14 12 14 15 15 11 10 12 12 11 12 14 14 17 19 21 19 19 20 22 22 22 18 18 18 17 22 26 28 27 25
10 10 8 8 10 11 12 13 14 16 17 16 14 13 13 15 16 14 12 12 12 14 14 16 20 22 22 22 22 22 22 21 21 20 21 20 20 23 25 23 25 23 24
9 10 11 11 11 12 14 12 12 10 12 12 12 13 14 15 14 13 13 14 13 15 20 22 23 22 22 21 21 21 20 20 20 18 21 22 22 22 19 18 18 21 19
12 13 11 12 13 14 14 13 11 9 13 17 12 14 14 14 14 14 14 14 15 19 24 20 19 19 18 18 19 20 21 21 20 21 24 24 23 21 18 17 16 17 15
16 13 13 13 14 15 15 15 12 13 21 24 16 19 16 15 15 15 16 17 18 22 22 21 19 19 19 20 21 21 22 23 23 25 24 20 17 16 15 13 13 15 15
11 11 12 14 15 15 15 15 17 17 15 18 21 20 18 16 15 15 18 21 23 22 21 20 20 20 20 21 21 22 21 20 19 19 20 19 18 18 17 16 15 14 13
17 14 15 15 16 16 15 17 21 20 18 18 17 17 16 16 18 19 21 24 21 22 22 22 21 21 21 21 20 19 19 20 20 19 17 17 16 16 16 14 13 12 11
18 16 18 18 18 18 17 18 21 20 20 20 21 19 19 22 24 25 27 27 26 25 25 25 23 21 20 20 20 21 20 18 16 15 14 14 14 13 11 8 5 4 3
20 19 19 19 18 17 17 18 20 21 20 22 20 19 23 27 25 25 26 27 28 27 25 23 22 23 22 21 21 19 17 15 14 14 14 15 15 13 10 7 5 3 3
21 23 23 25 24 23 21 20 21 23 23 22 21 22 24 26 26 25 24 24 23 23 23 26 26 25 22 20 17 15 13 12 11 12 14 15 15 14 12 9 7 7 5
17 19 19 20 23 21 24 25 24 23 24 23 22 23 24 24 23 22 22 21 22 23 23 23 22 19 16 14 11 10 9 9 10 11 12 13 15 16 16 14 9 9 10
11 12 14 17 23 26 26 24 24 22 21 22 24 25 25 24 24 24 24 23 24 25 25 25 24 22 20 19 19 17 14 13 13 12 12 13 14 14 14 15 14 13 14
10 16 19 21 20 20 19 19 21 22 23 24 25 25 25 26 26 26 26 26 26 25 25 25 24 24 23 22 22 20 19 17 15 13 13 14 15 15 16 15 14 15 15
14 16 18 17 17 16 18 19 20 20 23 24 25 25 26 26 25 25 24 24 24 24 24 24 23 23 22 22 21 19 18 17 17 16 15 15 16 16 17 18 18 17 16
Wind_Direction
338 337 344 340 333 326 319 317 318 321 322 320 320 322 331 342 348 351 11 17 16 9 12 15 15 10 4 3 358 356 354 353 311 315 94 106 86 91 85 86 84 78 72
352 342 337 335 338 340 340 336 336 335 334 328 324 318 325 343 350 348 4 15 14 15 12 10 8 5 3 359 358 359 356 351 316 82 88 88 98 93 91 84 78 74 70
346 342 347 351 350 347 344 339 340 336 332 332 321 320 330 342 345 339 346 355 0 359 359 359 360 360 354 352 352 347 354 355 6 141 116 116 112 107 95 84 76 73 63
346 353 353 355 355 352 351 353 347 339 332 331 336 335 341 340 340 334 333 329 343 357 2 4 360 357 344 341 339 349 351 356 25 126 116 110 117 126 106 89 71 69 60
344 350 353 356 360 1 5 0 351 343 336 348 9 10 1 356 352 342 330 317 328 347 2 5 1 355 342 340 330 345 345 359 42 124 122 127 137 95 101 107 98 82 65
345 351 350 356 359 359 1 357 355 356 2 8 12 6 1 5 359 354 341 311 312 346 1 0 3 2 352 347 346 346 334 344 17 138 146 148 141 135 139 122 92 39 78
349 344 347 356 360 1 1 358 359 357 347 351 351 345 349 359 359 358 360 356 337 3 2 360 0 5 357 352 349 349 351 339 231 150 163 151 145 169 149 122 55 84 87
358 351 349 339 344 358 358 358 353 357 357 347 348 353 346 351 354 355 0 346 326 4 3 0 360 358 356 349 348 8 53 96 77 145 173 162 166 159 146 126 118 101 86
351 350 347 339 342 351 4 6 10 6 7 8 359 355 348 342 344 357 2 4 356 3 2 0 1 358 356 5 41 87 91 83 98 115 128 136 138 141 130 137 131 95 83
340 334 336 335 345 8 8 7 5 356 2 7 15 13 3 354 349 0 13 27 13 3 5 10 9 6 17 62 98 96 84 90 107 107 106 110 115 115 113 135 117 102 114
345 350 352 11 17 20 17 15 12 17 18 12 7 4 8 6 6 23 33 36 25 18 18 14 17 30 65 81 98 103 101 108 100 97 94 93 97 97 87 102 62 123 102
349 359 10 18 28 19 15 18 15 15 18 9 8 15 21 16 20 40 40 38 26 31 19 25 50 67 80 85 90 102 104 96 92 87 81 77 78 78 78 80 82 87 92
12 24 26 29 25 11 8 14 15 20 10 356 358 11 19 32 42 44 41 27 32 35 44 63 75 79 81 80 85 90 87 82 85 79 74 76 81 91 95 94 92 88 86
32 33 17 9 6 5 17 19 18 17 11 8 20 28 40 36 38 39 34 37 47 58 74 74 79 79 78 79 75 73 77 82 85 84 85 87 93 99 97 95 94 87 78
33 35 28 22 21 16 20 18 17 27 19 18 43 45 45 43 40 42 48 49 52 72 82 79 72 66 64 69 71 74 79 82 79 86 91 93 97 97 90 96 90 84 79
30 24 26 24 25 32 33 45 40 44 27 41 54 64 65 62 64 63 61 62 72 82 75 62 58 58 61 64 66 70 76 81 87 90 91 92 97 95 87 87 81 80 78
38 42 46 42 34 38 42 47 47 43 61 60 68 68 65 70 68 70 69 74 77 74 65 59 57 61 66 71 73 75 78 87 92 93 92 93 94 90 84 77 76 77 71
32 29 24 48 49 56 61 60 54 44 41 56 69 69 68 71 70 72 81 80 69 65 62 60 63 72 76 79 82 87 92 91 88 89 89 86 81 78 72 67 66 67 68
38 44 58 61 65 69 69 64 57 55 62 73 78 71 69 71 76 78 68 67 60 60 64 69 75 78 81 82 86 88 89 91 93 90 82 72 63 58 58 57 61 65 65
57 59 66 70 71 71 70 66 61 63 64 66 70 73 80 76 65 66 70 70 64 65 68 71 74 77 80 84 87 90 90 88 82 73 60 48 39 33 31 29 29 35 55
60 63 65 66 68 71 72 71 73 66 64 69 68 68 74 74 69 65 65 64 66 68 70 72 73 75 79 83 87 86 82 74 61 48 35 25 19 16 15 7 354 330 272
58 69 71 72 69 67 71 77 79 81 73 76 73 73 72 71 70 69 66 63 64 66 71 75 76 76 76 75 73 70 63 53 40 29 23 21 26 35 35 35 52 58 53
75 77 70 52 55 75 81 85 84 77 77 76 71 70 69 68 67 65 62 64 70 73 73 73 72 69 67 64 58 49 38 30 25 21 24 35 43 41 39 44 53 55 61
52 44 32 50 80 90 86 86 84 77 75 73 74 74 73 72 70 70 72 73 74 73 70 67 65 64 62 56 53 50 44 39 36 37 47 52 49 46 46 55 65 74 79
46 41 58 89 97 86 79 81 83 83 78 77 77 77 78 77 76 74 73 72 70 66 65 62 58 57 58 57 54 50 50 48 43 49 56 56 53 51 55 65 72 76 79
68 74 72 91 92 90 82 81 83 83 81 78 77 76 75 73 73 72 71 70 69 68 67 64 61 61 60 57 53 49 47 48 53 57 59 60 63 67 69 71 73 74 76